Portada
METAR-TAF:

METAR-TAF

Aeroports :

Jayapura, Indonèsia

latitud: 02-34-37S, longitud: 140-30-58E, altitud: 88 m

Observació

L'informe es va fer fa 15 minuts, a les 16:30 UTC
Vent calma
Temperatura 27°C
Humitat 89%
Pressió 1011 hPa
Visibilitat: 7000 m
Escasses núvols a una alçada de 1100 ft, Cumulonimbus.
Núvols disperses a una alçada de 1200 ft
pluja

METAR: WAJJ 271630Z 00000KT 7000 -RA FEW011CB SCT012 27/25 Q1011 BEMG NSW

Hora: 23:45 (16:45 UTC)


TAF: manca

Observacions i pronòstics meteorològics de més de 4000 aeroports (METAR i TAF).

Les estacions disponibles són els punts grocs i vermells al mapa.

Posi el ratolí al punt desitjat per veure el nom de l'estació.

Feu clic per veure les observacions i els pronòstics meteorològics.

Per canviar el mapa: feu clic els botons verds amb una creu de color negre per apropar; al botó verd amb un guió per allunyar la imatge; o en les fletxes verdes per a mapes adjacents.


METAR-TAF: